Tracking 25963 objects as of 12-Aug-2022
HD Live streaming from Space Station
objects crossing your sky now

OPS 1948

Track OPS 1948 now!
OPS 1948 is classified as:


NORAD ID: 11558
Int'l Code: 1979-086A
Perigee: 30,378.7 km
Apogee: 41,264.6 km
Inclination: 5.7 °
Period: 1,437.5 minutes
Semi major axis: 42192 km
RCS: Unknown
Launch date: October 1, 1979
Source: United States (US)
Launch site: AIR FORCE EASTERN TEST RANGE (AFETR)
aabbcc
Your satellite tracking list
Your tracking list is empty




NASA's NSSDC Master Catalog

Two Line Element Set (TLE):
1 11558U 79086A   22224.48009674  .00000066  00000-0  00000-0 0  9992
2 11558   5.6687 359.0464 1290025  66.5432 102.5942  1.00172229 12134
Source of the keplerian elements: McCants